Flag for Switzerland Weather past 2 weeks in Chur, Graubünden, Switzerland

Now
44 °F

Quite cool.


Feels Like: 42 °F
Forecast: 47 / 60 °F
Wind: 5 mph from South

Location: Chur-Ems

Current Time: Mar 30, 2015 at 10:56:31 PM

Latest Report: Mar 30, 2015 at 10:00 PM


Visibility: N/A

Pressure: 30.03 "Hg

Humidity: 88%

Dew point: 41 °F

Location of ChurLocation

Historic Weather in Chur — Graph

°F

Chur temperature yesterday

Maximum temperature yesterday: 56 °F (at 3:00 PM)
Minimum temperature yesterday: 42 °F (at 7:00 AM)
Average temperature yesterday: 47 °F

Past Weeks' High & Low Weather Summary

 TemperatureHumidityPressure
High65 °F (Mar 18, 2:40 PM)96% (Mar 30, 1:00 AM)30.34 "Hg (Mar 30, 1:00 AM)
Low32 °F (Mar 23, 6:00 AM)15% (Mar 28, 2:00 PM)29.50 "Hg (Mar 25, 1:00 PM)
Average48 °F62%30.02 "Hg
* Reported Mar 15 8:00 PM — Mar 30 9:00 PM, Chur, Weather by CustomWeather, © 2015

Note: Actual official high and low records may vary slightly from our data, if they occured in-between our weather recording intervals... More about our weather records

Advertising

Chur weather history for previous 24 hours

 ConditionsComfort  
Time TempWeatherWind HumidityBarometerVisibility
9:00 PM
Mon, Mar 30
45 °FCool.7 mph86%29.98 "HgN/A
8:00 PM48 °FRain. Overcast.12 mph71%29.92 "Hg3 mi
7:00 PM50 °FCool.18 mph62%29.88 "HgN/A
6:00 PM50 °FCool.23 mph65%29.83 "HgN/A
5:00 PM49 °FLight rain. Overcast.20 mph71%29.80 "Hg3 mi
4:00 PM50 °FCool.20 mph73%29.76 "HgN/A
3:00 PM46 °FCool.3 mph93%29.78 "HgN/A
2:00 PM47 °FRain. Low clouds.1 mph86%29.78 "Hg3 mi
1:00 PM46 °FCool.2 mph91%29.78 "HgN/A
12:00 PM45 °FCool.1 mph91%29.77 "HgN/A
11:00 AM44 °FRain. Low clouds.3 mph92%29.78 "Hg4 mi
10:00 AM44 °FQuite cool.5 mph93%29.76 "HgN/A
9:00 AM44 °FQuite cool.5 mph92%29.76 "HgN/A
8:00 AM46 °FHeavy rain. Low clouds.No wind94%29.75 "Hg2 mi
7:00 AM46 °FCool.1 mph95%29.74 "HgN/A
6:00 AM46 °FCool.1 mph96%29.72 "HgN/A
5:00 AM46 °FHeavy rain. Low clouds.2 mph96%29.72 "Hg2 mi
4:00 AM46 °FCool.1 mph95%29.74 "HgN/A
3:00 AM46 °FCool.No wind95%29.75 "HgN/A
2:00 AM47 °FRain. Low clouds.No wind95%29.78 "Hg2 mi
1:00 AM46 °FCool.No wind96%29.79 "HgN/A
12:00 AM47 °FCool.1 mph95%29.81 "HgN/A
10:00 PM
Sun, Mar 29
47 °FCool.1 mph95%29.83 "HgN/A
Weather by CustomWeather, © 2015

See weather overviewHow to use our weather pages